Weather History for KMOX - May, 2013

Change the Weather History Date:

Wednesday, May 29, 2013

  Actual Average Record
Temperature  
Mean Temperature 63 °F -  
Max Temperature 73 °F 67 °F 87 °F (2002)
Min Temperature 53 °F 47 °F 46 °F (2012)
Degree Days  
Heating Degree Days 2    
Growing Degree Days 13 (Base 50)    
Moisture  
Dew Point 60 °F    
Average Humidity 89    
Maximum Humidity 100    
Minimum Humidity 69    
Precipitation  
Precipitation 0.15 in - - ()
Sea Level Pressure  
Sea Level Pressure 29.65 in    
Wind  
Wind Speed 13 mph (SE)    
Max Wind Speed 29 mph    
Max Gust Speed 43 mph    
Visibility 6 miles    
Events Fog , Rain , Thunderstorm    
Averages and records for this station are not official NWS values.
T = Trace of Precipitation, MM = Missing Value Source: NWS Daily Summary

Daily Weather History Graph

Daily Weather History Graph

Search for Another Location

Airport or City:

Trip Planner

Search our weather history database for the weather conditions in past years. The results will help you decide how hot, cold, wet, or windy it might be!

Date:

Astronomy

May. 29, 2013 Rise Set
Actual Time 5:39 AM CDT 9:03 PM CDT
Civil Twilight 5:03 AM CDT 9:39 PM CDT
Nautical Twilight 4:15 AM CDT 10:28 PM CDT
Astronomical Twilight 3:14 AM CDT 11:29 PM CDT
Moon 12:19 AM CDT (5/29) 10:48 AM CDT (5/29)
Length of Visible Light 16h 36m
Length of Day
15h 23m
Waning Gibbous, 73% of the Moon is Illuminated
May 29
Waning Gibbous
May 31
Last Quarter
Jun 8
New
Jun 16
First Quarter
Jun 23
Full

Hourly Weather History & Observations

Time (CDT) Temp. Dew Point Humidity Pressure Visibility Wind Dir Wind Speed Gust Speed Precip Events Conditions
12:11 AM 57.2 °F 55.4 °F 94% 29.72 in 7.0 mi SSE 10.4 mph - N/A   Clear
12:32 AM 55.4 °F 53.6 °F 94% 29.74 in 5.0 mi SSE 10.4 mph - N/A   Clear
12:51 AM 55.4 °F 53.6 °F 94% 29.74 in 5.0 mi SSE 9.2 mph - N/A   Clear
1:09 AM 57.2 °F 55.4 °F 94% 29.74 in 5.0 mi SSE 10.4 mph - N/A   Clear
1:31 AM 55.4 °F 53.6 °F 94% 29.73 in 5.0 mi SE 8.1 mph - N/A   Clear
1:52 AM 55.4 °F 53.6 °F 94% 29.73 in 4.0 mi SSE 9.2 mph - N/A   Clear
2:11 AM 55.4 °F 53.6 °F 94% 29.73 in 4.0 mi SSE 9.2 mph - N/A   Clear
2:31 AM 55.4 °F 53.6 °F 94% 29.74 in 4.0 mi SSE 10.4 mph - N/A   Clear
2:52 AM 55.4 °F 53.6 °F 94% 29.74 in 3.0 mi SE 9.2 mph - N/A   Clear
3:11 AM 55.4 °F 53.6 °F 94% 29.73 in 3.0 mi SSE 10.4 mph - N/A   Clear
3:32 AM 53.6 °F 53.6 °F 100% 29.72 in 3.0 mi SE 8.1 mph - N/A   Clear
3:51 AM 53.6 °F 53.6 °F 100% 29.72 in 2.5 mi SSE 9.2 mph - N/A   Clear
4:11 AM 53.6 °F 53.6 °F 100% 29.72 in 2.5 mi SSE 10.4 mph - N/A   Clear
4:31 AM 53.6 °F 53.6 °F 100% 29.73 in 2.5 mi SSE 11.5 mph - N/A   Clear
4:51 AM 53.6 °F 53.6 °F 100% 29.74 in 2.5 mi SSE 10.4 mph - N/A   Clear
5:12 AM 53.6 °F 53.6 °F 100% 29.73 in 2.5 mi SE 8.1 mph - N/A   Mostly Cloudy
5:31 AM 53.6 °F 53.6 °F 100% 29.73 in 2.0 mi SE 9.2 mph - N/A   Mostly Cloudy
5:51 AM 53.6 °F 53.6 °F 100% 29.72 in 0.8 mi SE 9.2 mph - N/A   Overcast
6:11 AM 55.4 °F 53.6 °F 94% 29.71 in 0.2 mi ESE 9.2 mph - N/A Fog Fog
6:31 AM 53.6 °F 53.6 °F 100% 29.71 in 0.2 mi SE 9.2 mph - N/A Fog Fog
6:52 AM 55.4 °F 55.4 °F 100% 29.71 in 0.2 mi SE 10.4 mph - N/A Fog Fog
7:11 AM 55.4 °F 55.4 °F 100% 29.73 in 1.8 mi SSE 11.5 mph - N/A   Overcast
7:31 AM 57.2 °F 55.4 °F 94% 29.73 in 1.5 mi SSE 13.8 mph - N/A   Overcast
7:51 AM 57.2 °F 57.2 °F 100% 29.74 in 1.2 mi SSE 16.1 mph - N/A   Overcast
8:11 AM 57.2 °F 57.2 °F 100% 29.75 in 2.0 mi SSE 15.0 mph - N/A   Overcast
8:32 AM 59.0 °F 57.2 °F 94% 29.74 in 3.0 mi SSE 11.5 mph - N/A   Overcast
8:51 AM 59.0 °F 57.2 °F 94% 29.74 in 3.0 mi SE 10.4 mph - N/A   Mostly Cloudy
9:12 AM 57.2 °F 57.2 °F 100% 29.72 in 4.0 mi ESE 6.9 mph - N/A   Mostly Cloudy
9:31 AM 57.2 °F 57.2 °F 100% 29.75 in 4.0 mi South 5.8 mph - N/A   Scattered Clouds
9:52 AM 57.2 °F 57.2 °F 100% 29.77 in 2.5 mi SSW 8.1 mph - 0.01 in Rain Light Rain
10:11 AM 57.2 °F 57.2 °F 100% 29.74 in 2.5 mi ESE 6.9 mph - 0.04 in Rain , Thunderstorm Rain
10:31 AM 57.2 °F 57.2 °F 100% 29.62 in 1.5 mi East 28.8 mph - 0.08 in Rain Light Rain
10:51 AM 59.0 °F 57.2 °F 94% 29.58 in 10.0 mi East 27.6 mph 42.6 mph 0.10 in Rain Light Rain
11:11 AM 62.6 °F 57.2 °F 82% 29.62 in 10.0 mi ESE 19.6 mph 34.5 mph N/A   Scattered Clouds
11:31 AM 60.8 °F 57.2 °F 88% 29.61 in 10.0 mi ESE 25.3 mph 35.7 mph N/A   Clear
11:51 AM 62.6 °F 57.2 °F 82% 29.62 in 10.0 mi ESE 25.3 mph - N/A   Clear
12:11 PM 64.4 °F 60.8 °F 88% 29.63 in 10.0 mi SE 16.1 mph 26.5 mph N/A   Clear
12:32 PM 68.0 °F 60.8 °F 78% 29.64 in 10.0 mi ESE 24.2 mph - N/A   Scattered Clouds
12:51 PM 71.6 °F 60.8 °F 69% 29.64 in 10.0 mi SE 25.3 mph 32.2 mph N/A   Mostly Cloudy
1:12 PM 71.6 °F 62.6 °F 73% 29.65 in 10.0 mi SE 27.6 mph 32.2 mph N/A   Scattered Clouds
1:32 PM 71.6 °F 62.6 °F 73% 29.66 in 10.0 mi SE 25.3 mph 33.4 mph N/A   Scattered Clouds
1:51 PM 71.6 °F 60.8 °F 69% 29.66 in 10.0 mi SE 25.3 mph - N/A   Mostly Cloudy
2:12 PM 71.6 °F 62.6 °F 73% 29.65 in 10.0 mi SE 24.2 mph 29.9 mph N/A   Overcast
2:31 PM 69.8 °F 62.6 °F 78% 29.64 in 10.0 mi SE 26.5 mph 31.1 mph N/A   Overcast
2:52 PM 69.8 °F 62.6 °F 78% 29.62 in 10.0 mi ESE 18.4 mph 24.2 mph N/A   Overcast
3:11 PM 69.8 °F 62.6 °F 78% 29.63 in 10.0 mi ESE 18.4 mph 25.3 mph N/A   Overcast
3:31 PM 69.8 °F 64.4 °F 83% 29.62 in 10.0 mi ESE 18.4 mph 24.2 mph N/A   Overcast
3:52 PM 69.8 °F 64.4 °F 83% 29.61 in 7.0 mi ESE 19.6 mph 23.0 mph N/A Thunderstorm Mostly Cloudy
4:11 PM 69.8 °F 64.4 °F 83% 29.61 in 7.0 mi ESE 17.3 mph - N/A   Mostly Cloudy
4:31 PM 69.8 °F 64.4 °F 83% 29.61 in 7.0 mi ESE 16.1 mph - N/A   Mostly Cloudy
4:51 PM 68.0 °F 64.4 °F 88% 29.59 in 5.0 mi East 11.5 mph 18.4 mph 0.04 in Rain , Thunderstorm Thunderstorms and Rain
5:11 PM 69.8 °F 68.0 °F 94% 29.58 in 5.0 mi ESE 13.8 mph - N/A Rain , Thunderstorm Light Thunderstorms and Rain
5:32 PM 71.6 °F 68.0 °F 88% 29.57 in 7.0 mi East 15.0 mph - N/A   Clear
5:51 PM 73.4 °F 68.0 °F 83% 29.56 in 7.0 mi ESE 15.0 mph 18.4 mph N/A   Scattered Clouds
6:12 PM 73.4 °F 68.0 °F 83% 29.56 in 7.0 mi ESE 13.8 mph - N/A   Mostly Cloudy
6:31 PM 71.6 °F 68.0 °F 88% 29.54 in 7.0 mi East 15.0 mph - N/A   Scattered Clouds
6:51 PM 71.6 °F 68.0 °F 88% 29.54 in 7.0 mi East 13.8 mph - N/A   Scattered Clouds
7:11 PM 71.6 °F 68.0 °F 88% 29.56 in 10.0 mi East 12.7 mph - N/A   Mostly Cloudy
7:32 PM 71.6 °F 68.0 °F 88% 29.56 in 10.0 mi East 15.0 mph - N/A   Mostly Cloudy
7:51 PM 71.6 °F 66.2 °F 83% 29.55 in 10.0 mi East 13.8 mph - N/A   Mostly Cloudy
8:11 PM 71.6 °F 66.2 °F 83% 29.55 in 10.0 mi East 15.0 mph - N/A   Overcast
8:31 PM 71.6 °F 66.2 °F 83% 29.55 in 10.0 mi ESE 16.1 mph - N/A   Overcast
8:51 PM 71.6 °F 66.2 °F 83% 29.55 in 10.0 mi ESE 15.0 mph - N/A   Overcast
9:11 PM 71.6 °F 66.2 °F 83% 29.56 in 10.0 mi ESE 12.7 mph - N/A   Mostly Cloudy
9:31 PM 71.6 °F 66.2 °F 83% 29.56 in 10.0 mi SE 15.0 mph - N/A   Scattered Clouds
9:52 PM 71.6 °F 66.2 °F 83% 29.58 in 10.0 mi ESE 13.8 mph - N/A   Mostly Cloudy
10:11 PM 71.6 °F 64.4 °F 78% 29.57 in 10.0 mi ESE 13.8 mph - N/A   Scattered Clouds
10:31 PM 69.8 °F 64.4 °F 83% 29.57 in 10.0 mi ESE 13.8 mph - N/A   Mostly Cloudy
10:51 PM 69.8 °F 66.2 °F 88% 29.57 in 10.0 mi ESE 11.5 mph - N/A   Mostly Cloudy
11:11 PM 69.8 °F 64.4 °F 83% 29.56 in 10.0 mi SE 11.5 mph - N/A   Scattered Clouds
11:31 PM 69.8 °F 64.4 °F 83% 29.54 in 10.0 mi SE 11.5 mph - N/A   Scattered Clouds
11:51 PM 69.8 °F 64.4 °F 83% 29.55 in 10.0 mi ESE 11.5 mph - N/A   Mostly Cloudy